This is the latest recevied weather packets stored in our database for station/object OH2TH. If no packets are shown the sender has not sent any weather packets the latest 10 day(s).
| Time | Temp. | Humidity | Pressure | Rain* | Wind** | Luminosity | Snow |
|---|---|---|---|---|---|---|---|
| 1777814102 | 18.33° C | 43% | 101 hPa | 12.45 mm | - | - | - |
| 1777813202 | 18.33° C | 43% | 101 hPa | 12.45 mm | - | - | - |
| 1777812302 | 18.33° C | 43% | 101 hPa | 12.45 mm | - | - | - |
| 1777811401 | 18.33° C | 44% | 101 hPa | 12.45 mm | - | - | - |
| 1777810501 | 17.22° C | 45% | 101 hPa | 12.45 mm | - | - | - |
| 1777809601 | 17.22° C | 49% | 101 hPa | 12.45 mm | - | - | - |
| 1777808701 | 17.22° C | 47% | 101 hPa | 12.45 mm | - | - | - |
| 1777807801 | 17.22° C | 49% | 101 hPa | 12.45 mm | - | - | - |
| 1777806901 | 17.22° C | 45% | 101 hPa | 12.45 mm | - | - | - |
| 1777806001 | 17.22° C | 49% | 101 hPa | 12.45 mm | - | - | - |
| 1777805101 | 17.22° C | 48% | 101 hPa | 12.45 mm | - | - | - |
| 1777804200 | 17.78° C | 47% | 101 hPa | 9.4 mm | - | - | - |
| 1777803305 | 17.78° C | 48% | 101 hPa | 9.4 mm | - | - | - |
| 1777802405 | 16.67° C | 52% | 101 hPa | 9.4 mm | - | - | - |
| 1777801504 | 15.56° C | 52% | 101 hPa | 9.4 mm | - | - | - |
| 1777800604 | 14.44° C | 56% | 101 hPa | 9.4 mm | - | - | - |
| 1777799704 | 13.89° C | 61% | 101 hPa | 9.4 mm | - | - | - |
| 1777798804 | 12.78° C | 63% | 101 hPa | 9.4 mm | - | - | - |
| 1777797904 | 12.78° C | 64% | 101 hPa | 9.4 mm | - | - | - |
| 1777797003 | 12.22° C | 65% | 101 hPa | 9.4 mm | - | - | - |
| 1777796103 | 12.22° C | 67% | 101 hPa | 9.4 mm | - | - | - |
| 1777795203 | 12.22° C | 66% | 101 hPa | 9.4 mm | - | - | - |
| 1777794303 | 12.22° C | 67% | 101 hPa | 9.4 mm | - | - | - |
| 1777793402 | 11.11° C | 70% | 101 hPa | 9.4 mm | - | - | - |
| 1777792502 | 10° C | 73% | 101 hPa | 9.4 mm | - | - | - |
* Rain latest 24 hours (hover to see other rain measurements)
** Current wind speed in m/s (hover to see current wind gust speed)